#Datum;Uhrzeit;WR;Pac;DaySum;Status;WR;Pac;DaySum;Status;Pdc1;Udc;Temp;WR;Pac;DaySum;Status;Pdc1;Udc;Temp;WR;Pac;DaySum;Status;Pdc1;Udc;Temp;WR;Pac;DaySum;Status;Pdc1;Pdc2;Udc1;Udc2;Temp;WR;Pac;DaySum;Status;Pdc1;Pdc2;Udc1;Udc2;Temp;WR;Pac;DaySum;Status;Pdc1;Udc;Temp;WR;Pac;DaySum;Status;Pdc1;Udc;Temp;WR;Pac;DaySum;Status;Pdc1;Udc;Temp
24.10.20;23:55:00;1;408;17100;0;2;0;7353;0;0;0;0;3;0;4524;0;0;0;0;4;0;5804;0;0;0;0;5;0;0;0;0;0;0;0;0;6;0;9720;0;0;0;0;0;0;7;0;8592;0;0;0;0;8;0;3958;0;0;0;0;9;0;4025;0;0;0;0
24.10.20;23:50:00;1;382;17066;0;2;0;7353;0;0;0;0;3;0;4524;0;0;0;0;4;0;5804;0;0;0;0;5;0;0;0;0;0;0;0;0;6;0;9720;0;0;0;0;0;0;7;0;8592;0;0;0;0;8;0;3958;0;0;0;0;9;0;4025;0;0;0;0
24.10.20;23:45:00;1;393;17034;0;2;0;7353;0;0;0;0;3;0;4524;0;0;0;0;4;0;5804;0;0;0;0;5;0;0;0;0;0;0;0;0;6;0;9720;0;0;0;0;0;0;7;0;8592;0;0;0;0;8;0;3958;0;0;0;0;9;0;4025;0;0;0;0
24.10.20;23:40:00;1;397;17000;0;2;0;7353;0;0;0;0;3;0;4524;0;0;0;0;4;0;5804;0;0;0;0;5;0;0;0;0;0;0;0;0;6;0;9720;0;0;0;0;0;0;7;0;8592;0;0;0;0;8;0;3958;0;0;0;0;9;0;4025;0;0;0;0
24.10.20;23:35:00;1;433;16965;0;2;0;7353;0;0;0;0;3;0;4524;0;0;0;0;4;0;5804;0;0;0;0;5;0;0;0;0;0;0;0;0;6;0;9720;0;0;0;0;0;0;7;0;8592;0;0;0;0;8;0;3958;0;0;0;0;9;0;4025;0;0;0;0
24.10.20;23:30:00;1;440;16929;0;2;0;7353;0;0;0;0;3;0;4524;0;0;0;0;4;0;5804;0;0;0;0;5;0;0;0;0;0;0;0;0;6;0;9720;0;0;0;0;0;0;7;0;8592;0;0;0;0;8;0;3958;0;0;0;0;9;0;4025;0;0;0;0
24.10.20;23:25:00;1;413;16894;0;2;0;7353;0;0;0;0;3;0;4524;0;0;0;0;4;0;5804;0;0;0;0;5;0;0;0;0;0;0;0;0;6;0;9720;0;0;0;0;0;0;7;0;8592;0;0;0;0;8;0;3958;0;0;0;0;9;0;4025;0;0;0;0
24.10.20;23:20:00;1;409;16858;0;2;0;7353;0;0;0;0;3;0;4524;0;0;0;0;4;0;5804;0;0;0;0;5;0;0;0;0;0;0;0;0;6;0;9720;0;0;0;0;0;0;7;0;8592;0;0;0;0;8;0;3958;0;0;0;0;9;0;4025;0;0;0;0
24.10.20;23:15:00;1;430;16822;0;2;0;7353;0;0;0;0;3;0;4524;0;0;0;0;4;0;5804;0;0;0;0;5;0;0;0;0;0;0;0;0;6;0;9720;0;0;0;0;0;0;7;0;8592;0;0;0;0;8;0;3958;0;0;0;0;9;0;4025;0;0;0;0
24.10.20;23:10:00;1;907;16779;0;2;0;7353;0;0;0;0;3;0;4524;0;0;0;0;4;0;5804;0;0;0;0;5;0;0;0;0;0;0;0;0;6;0;9720;0;0;0;0;0;0;7;0;8592;0;0;0;0;8;0;3958;0;0;0;0;9;0;4025;0;0;0;0
24.10.20;23:05:00;1;905;16703;0;2;0;7353;0;0;0;0;3;0;4524;0;0;0;0;4;0;5804;0;0;0;0;5;0;0;0;0;0;0;0;0;6;0;9720;0;0;0;0;0;0;7;0;8592;0;0;0;0;8;0;3958;0;0;0;0;9;0;4025;0;0;0;0
24.10.20;23:00:00;1;901;16628;0;2;0;7353;0;0;0;0;3;0;4524;0;0;0;0;4;0;5804;0;0;0;0;5;0;0;0;0;0;0;0;0;6;0;9720;0;0;0;0;0;0;7;0;8592;0;0;0;0;8;0;3958;0;0;0;0;9;0;4025;0;0;0;0
24.10.20;22:55:00;1;875;16553;0;2;0;7353;0;0;0;0;3;0;4524;0;0;0;0;4;0;5804;0;0;0;0;5;0;0;0;0;0;0;0;0;6;0;9720;2;0;0;0;0;0;7;0;8592;0;0;0;0;8;0;3958;0;0;0;0;9;0;4025;0;0;0;0
24.10.20;22:50:00;1;920;16479;0;2;0;7353;0;0;0;0;3;0;4524;0;0;0;0;4;0;5804;0;0;0;0;5;0;0;0;0;0;0;0;0;6;0;9720;2;0;0;0;0;0;7;0;8592;0;0;0;0;8;0;3958;0;0;0;0;9;0;4025;0;0;0;0
24.10.20;22:45:00;1;889;16401;0;2;0;7353;0;0;0;0;3;0;4524;0;0;0;0;4;0;5804;0;0;0;0;5;0;0;0;0;0;0;0;0;6;0;9720;2;0;0;0;0;0;7;0;8592;0;0;0;0;8;0;3958;0;0;0;0;9;0;4025;0;0;0;0
24.10.20;22:40:00;1;888;16328;0;2;0;7353;0;0;0;0;3;0;4524;0;0;0;0;4;0;5804;0;0;0;0;5;0;0;0;0;0;0;0;0;6;0;9720;2;0;0;0;0;0;7;0;8592;0;0;0;0;8;0;3958;0;0;0;0;9;0;4025;0;0;0;0
24.10.20;22:35:00;1;888;16254;0;2;0;7353;0;0;0;0;3;0;4524;0;0;0;0;4;0;5804;0;0;0;0;5;0;0;0;0;0;0;0;0;6;0;9720;2;0;0;0;0;0;7;0;8592;0;0;0;0;8;0;3958;0;0;0;0;9;0;4025;0;0;0;0
24.10.20;22:30:00;1;871;16180;0;2;0;7353;0;0;0;0;3;0;4524;0;0;0;0;4;0;5804;0;0;0;0;5;0;0;0;0;0;0;0;0;6;0;9720;2;0;0;0;0;0;7;0;8592;0;0;0;0;8;0;3958;0;0;0;0;9;0;4025;0;0;0;0
24.10.20;22:25:00;1;924;16107;0;2;0;7353;0;0;0;0;3;0;4524;0;0;0;0;4;0;5804;0;0;0;0;5;0;0;0;0;0;0;0;0;6;0;9720;2;0;0;0;0;0;7;0;8592;0;0;0;0;8;0;3958;0;0;0;0;9;0;4025;0;0;0;0
24.10.20;22:20:00;1;1094;16029;0;2;0;7353;0;0;0;0;3;0;4524;0;0;0;0;4;0;5804;0;0;0;0;5;0;0;0;0;0;0;0;0;6;0;9720;2;0;0;0;0;0;7;0;8592;0;0;0;0;8;0;3958;0;0;0;0;9;0;4025;0;0;0;0
24.10.20;22:15:00;1;936;15946;0;2;0;7353;0;0;0;0;3;0;4524;0;0;0;0;4;0;5804;0;0;0;0;5;0;0;0;0;0;0;0;0;6;0;9720;2;0;0;0;0;0;7;0;8592;0;0;0;0;8;0;3958;0;0;0;0;9;0;4025;0;0;0;0
24.10.20;22:10:00;1;966;15869;0;2;0;7353;0;0;0;0;3;0;4524;0;0;0;0;4;0;5804;0;0;0;0;5;0;0;0;0;0;0;0;0;6;0;9720;2;0;0;0;0;0;7;0;8592;0;0;0;0;8;0;3958;0;0;0;0;9;0;4025;0;0;0;0
24.10.20;22:05:00;1;958;15789;0;2;0;7353;0;0;0;0;3;0;4524;0;0;0;0;4;0;5804;0;0;0;0;5;0;0;0;0;0;0;0;0;6;0;9720;2;0;0;0;0;0;7;0;8592;0;0;0;0;8;0;3958;0;0;0;0;9;0;4025;0;0;0;0
24.10.20;22:00:00;1;955;15710;0;2;0;7353;0;0;0;0;3;0;4524;0;0;0;0;4;0;5804;0;0;0;0;5;0;0;0;0;0;0;0;0;6;0;9720;2;0;0;0;0;0;7;0;8592;0;0;0;0;8;0;3958;0;0;0;0;9;0;4025;0;0;0;0
24.10.20;21:55:00;1;1145;15630;0;2;0;7353;0;0;0;0;3;0;4524;0;0;0;0;4;0;5804;0;0;0;0;5;0;0;0;0;0;0;0;0;6;0;9720;2;0;0;0;0;0;7;0;8592;0;0;0;0;8;0;3958;0;0;0;0;9;0;4025;0;0;0;0
24.10.20;21:50:00;1;1004;15546;0;2;0;7353;0;0;0;0;3;0;4524;0;0;0;0;4;0;5804;0;0;0;0;5;0;0;0;0;0;0;0;0;6;0;9720;2;0;0;0;0;0;7;0;8592;0;0;0;0;8;0;3958;0;0;0;0;9;0;4025;0;0;0;0
24.10.20;21:45:00;1;956;15462;0;2;0;7353;0;0;0;0;3;0;4524;0;0;0;0;4;0;5804;0;0;0;0;5;0;0;0;0;0;0;0;0;6;0;9720;2;0;0;0;0;0;7;0;8592;0;0;0;0;8;0;3958;0;0;0;0;9;0;4025;0;0;0;0
24.10.20;21:40:00;1;956;15383;0;2;0;7353;0;0;0;0;3;0;4524;0;0;0;0;4;0;5804;0;0;0;0;5;0;0;0;0;0;0;0;0;6;0;9720;2;0;0;0;0;0;7;0;8592;0;0;0;0;8;0;3958;0;0;0;0;9;0;4025;0;0;0;0
24.10.20;21:35:00;1;619;15302;0;2;0;7353;0;0;0;0;3;0;4524;0;0;0;0;4;0;5804;0;0;0;0;5;0;0;0;0;0;0;0;0;6;0;9720;2;0;0;0;0;0;7;0;8592;0;0;0;0;8;0;3958;0;0;0;0;9;0;4025;0;0;0;0
24.10.20;21:30:00;1;630;15242;0;2;0;7353;0;0;0;0;3;0;4524;0;0;0;0;4;0;5804;0;0;0;0;5;0;0;0;0;0;0;0;0;6;0;9720;2;0;0;0;0;0;7;0;8592;0;0;0;0;8;0;3958;0;0;0;0;9;0;4025;0;0;0;0
24.10.20;21:25:00;1;911;15189;0;2;0;7353;0;0;0;0;3;0;4524;0;0;0;0;4;0;5804;0;0;0;0;5;0;0;0;0;0;0;0;0;6;0;9720;2;0;0;0;0;0;7;0;8592;0;0;0;0;8;0;3958;0;0;0;0;9;0;4025;0;0;0;0
24.10.20;21:20:00;1;901;15111;0;2;0;7353;0;0;0;0;3;0;4524;0;0;0;0;4;0;5804;0;0;0;0;5;0;0;0;0;0;0;0;0;6;0;9720;2;0;0;0;0;0;7;0;8592;0;0;0;0;8;0;3958;0;0;0;0;9;0;4025;0;0;0;0
24.10.20;21:15:00;1;873;15034;0;2;0;7353;0;0;0;0;3;0;4524;0;0;0;0;4;0;5804;0;0;0;0;5;0;0;0;0;0;0;0;0;6;0;9720;2;0;0;0;0;0;7;0;8592;0;0;0;0;8;0;3958;0;0;0;0;9;0;4025;0;0;0;0
24.10.20;21:10:00;1;1134;14958;0;2;0;7353;0;0;0;0;3;0;4524;0;0;0;0;4;0;5804;0;0;0;0;5;0;0;0;0;0;0;0;0;6;0;9720;2;0;0;0;0;0;7;0;8592;0;0;0;0;8;0;3958;0;0;0;0;9;0;4025;0;0;0;0
24.10.20;21:05:00;1;1419;14867;0;2;0;7353;0;0;0;0;3;0;4524;0;0;0;0;4;0;5804;0;0;0;0;5;0;0;0;0;0;0;0;0;6;0;9720;2;0;0;0;0;0;7;0;8592;0;0;0;0;8;0;3958;0;0;0;0;9;0;4025;0;0;0;0
24.10.20;21:00:00;1;1728;14747;0;2;0;7353;0;0;0;0;3;0;4524;0;0;0;0;4;0;5804;0;0;0;0;5;0;0;0;0;0;0;0;0;6;0;9720;2;0;0;0;0;0;7;0;8592;0;0;0;0;8;0;3958;0;0;0;0;9;0;4025;0;0;0;0
24.10.20;20:55:00;1;1512;14607;0;2;0;7353;0;0;0;0;3;0;4524;0;0;0;0;4;0;5804;0;0;0;0;5;0;0;0;0;0;0;0;0;6;0;9720;2;0;0;0;0;0;7;0;8592;0;0;0;0;8;0;3958;0;0;0;0;9;0;4025;0;0;0;0
24.10.20;20:50:00;1;1521;14479;0;2;0;7353;0;0;0;0;3;0;4524;0;0;0;0;4;0;5804;0;0;0;0;5;0;0;0;0;0;0;0;0;6;0;9720;2;0;0;0;0;0;7;0;8592;0;0;0;0;8;0;3958;0;0;0;0;9;0;4025;0;0;0;0
24.10.20;20:45:00;1;1876;14351;0;2;0;7353;0;0;0;0;3;0;4524;0;0;0;0;4;0;5804;0;0;0;0;5;0;0;0;0;0;0;0;0;6;0;9720;2;0;0;0;0;0;7;0;8592;0;0;0;0;8;0;3958;0;0;0;0;9;0;4025;0;0;0;0
24.10.20;20:40:00;1;1651;14193;0;2;0;7353;0;0;0;0;3;0;4524;0;0;0;0;4;0;5804;0;0;0;0;5;0;0;0;0;0;0;0;0;6;0;9720;2;0;0;0;0;0;7;0;8592;0;0;0;0;8;0;3958;0;0;0;0;9;0;4025;0;0;0;0
24.10.20;20:35:00;1;1628;14054;0;2;0;7353;0;0;0;0;3;0;4524;0;0;0;0;4;0;5804;0;0;0;0;5;0;0;0;0;0;0;0;0;6;0;9720;2;0;0;0;0;0;7;0;8592;0;0;0;0;8;0;3958;0;0;0;0;9;0;4025;0;0;0;0
24.10.20;20:30:00;1;1594;13915;0;2;0;7353;0;0;0;0;3;0;4524;0;0;0;0;4;0;5804;0;0;0;0;5;0;0;0;0;0;0;0;0;6;0;9720;2;0;0;0;0;0;7;0;8592;0;0;0;0;8;0;3958;0;0;0;0;9;0;4025;0;0;0;0
24.10.20;20:25:00;1;1861;13782;0;2;0;7353;0;0;0;0;3;0;4524;0;0;0;0;4;0;5804;0;0;0;0;5;0;0;0;0;0;0;0;0;6;0;9720;2;0;0;0;0;0;7;0;8592;0;0;0;0;8;0;3958;0;0;0;0;9;0;4025;0;0;0;0
24.10.20;20:20:00;1;1560;13641;0;2;0;7353;0;0;0;0;3;0;4524;0;0;0;0;4;0;5804;0;0;0;0;5;0;0;0;0;0;0;0;0;6;0;9720;2;0;0;0;0;0;7;0;8592;0;0;0;0;8;0;3958;0;0;0;0;9;0;4025;0;0;0;0
24.10.20;20:15:00;1;1389;13511;0;2;0;7353;0;0;0;0;3;0;4524;0;0;0;0;4;0;5804;0;0;0;0;5;0;0;0;0;0;0;0;0;6;0;9720;2;0;0;0;0;0;7;0;8592;0;0;0;0;8;0;3958;0;0;0;0;9;0;4025;0;0;0;0
24.10.20;20:10:00;1;1471;13392;0;2;0;7353;0;0;0;0;3;0;4524;0;0;0;0;4;0;5804;0;0;0;0;5;0;0;0;0;0;0;0;0;6;0;9720;2;0;0;0;0;0;7;0;8592;0;0;0;0;8;0;3958;0;0;0;0;9;0;4025;0;0;0;0
24.10.20;20:05:00;1;1470;13271;0;2;0;7353;0;0;0;0;3;0;4524;0;0;0;0;4;0;5804;0;0;0;0;5;0;0;0;0;0;0;0;0;6;0;9720;2;0;0;0;0;0;7;0;8592;0;0;0;0;8;0;3958;0;0;0;0;9;0;4025;0;0;0;0
24.10.20;20:00:00;1;1424;13149;0;2;0;7353;0;0;0;0;3;0;4524;0;0;0;0;4;0;5804;0;0;0;0;5;0;0;0;0;0;0;0;0;6;0;9720;2;0;0;0;0;0;7;0;8592;0;0;0;0;8;0;3958;0;0;0;0;9;0;4025;0;0;0;0
24.10.20;19:55:00;1;1471;13029;0;2;0;7353;0;0;0;0;3;0;4524;0;0;0;0;4;0;5804;0;0;0;0;5;0;0;0;0;0;0;0;0;6;0;9720;2;0;0;0;0;0;7;0;8592;0;0;0;0;8;0;3958;0;0;0;0;9;0;4025;0;0;0;0
24.10.20;19:50:00;1;1465;12909;0;2;0;7353;0;0;0;0;3;0;4524;0;0;0;0;4;0;5804;0;0;0;0;5;0;0;0;0;0;0;0;0;6;0;9720;2;0;0;0;0;0;7;0;8592;0;0;0;0;8;0;3958;0;0;0;0;9;0;4025;0;0;0;0
24.10.20;19:45:00;1;1528;12787;0;2;0;7353;0;0;0;0;3;0;4524;0;0;0;0;4;0;5804;0;0;0;0;5;0;0;0;0;0;0;0;0;6;0;9720;2;0;0;0;0;0;7;0;8592;0;0;0;0;8;0;3958;0;0;0;0;9;0;4025;0;0;0;0
24.10.20;19:40:00;1;2903;12661;0;2;0;7353;0;0;0;0;3;0;4524;0;0;0;0;4;0;5804;0;0;0;0;5;0;0;0;0;0;0;0;0;6;0;9720;2;0;0;0;0;0;7;0;8592;0;0;0;0;8;0;3958;0;0;0;0;9;0;4025;0;0;0;0
24.10.20;19:35:00;1;3231;12436;0;2;0;7353;0;0;0;0;3;0;4524;0;0;0;0;4;0;5804;0;0;0;0;5;0;0;0;0;0;0;0;0;6;0;9720;2;0;0;0;0;0;7;0;8592;0;0;0;0;8;0;3958;0;0;0;0;9;0;4025;0;0;0;0
24.10.20;19:30:00;1;3293;12163;0;2;0;7353;0;0;0;0;3;0;4524;0;0;0;0;4;0;5804;0;0;0;0;5;0;0;0;0;0;0;0;0;6;0;9720;2;0;0;0;0;0;7;0;8592;0;0;0;0;8;0;3958;0;0;0;0;9;0;4025;0;0;0;0
24.10.20;19:25:00;1;3256;11890;0;2;0;7353;0;0;0;0;3;0;4524;0;0;0;0;4;0;5804;0;0;0;0;5;0;0;0;0;0;0;0;0;6;0;9720;2;0;0;0;0;0;7;0;8592;0;0;0;0;8;0;3958;0;0;0;0;9;0;4025;0;0;0;0
24.10.20;19:20:00;1;3208;11620;0;2;0;7353;0;0;0;0;3;0;4524;0;0;0;0;4;0;5804;0;0;0;0;5;0;0;0;0;0;0;0;0;6;0;9720;2;0;0;0;0;0;7;0;8592;0;0;0;0;8;0;3958;0;0;0;0;9;0;4025;0;0;0;0
24.10.20;19:15:00;1;3816;11352;0;2;0;7353;0;0;0;0;3;0;4524;0;0;0;0;4;0;5804;0;0;0;0;5;0;0;0;0;0;0;0;0;6;0;9720;2;0;0;0;0;0;7;0;8592;0;0;0;0;8;0;3958;0;0;0;0;9;0;4025;0;0;0;0
24.10.20;19:10:00;1;3398;11040;0;2;0;7353;0;0;0;0;3;0;4524;0;0;0;0;4;0;5804;0;0;0;0;5;0;0;0;0;0;0;0;0;6;0;9720;2;0;0;0;0;0;7;0;8592;0;0;0;0;8;0;3958;0;0;0;0;9;0;4025;0;0;0;0
24.10.20;19:05:00;1;3469;10784;0;2;0;7353;0;0;0;0;3;0;4524;0;0;0;0;4;0;5804;0;0;0;0;5;0;0;0;0;0;0;0;0;6;0;9720;2;0;0;0;0;0;7;0;8592;0;0;0;0;8;0;3958;0;0;0;0;9;0;4025;0;0;0;0
24.10.20;19:00:00;1;1315;10569;0;2;0;7353;0;0;0;0;3;0;4524;0;0;0;0;4;0;5804;0;0;0;0;5;0;0;0;0;0;0;0;0;6;0;9720;2;0;0;0;0;0;7;0;8592;0;0;0;0;8;0;3958;0;0;0;0;9;0;4025;0;0;0;0
24.10.20;18:55:00;1;999;10460;0;2;0;7353;0;0;0;0;3;0;4524;0;0;0;0;4;0;5804;0;0;0;0;5;0;0;0;0;0;0;0;0;6;0;9720;2;0;0;0;0;0;7;0;8592;0;0;0;0;8;0;3958;0;0;0;0;9;0;4025;0;0;0;0
24.10.20;18:50:00;1;838;10369;0;2;0;7353;0;0;0;0;3;0;4524;0;0;0;0;4;0;5804;0;0;0;0;5;0;0;0;0;0;0;0;0;6;0;9720;2;0;0;0;0;0;7;0;8592;0;0;0;0;8;0;3958;0;0;0;0;9;0;4025;0;0;0;0
24.10.20;18:45:00;1;915;10300;0;2;0;7353;0;0;0;0;3;0;4524;0;0;0;0;4;0;5804;0;0;0;0;5;0;0;0;0;0;0;0;0;6;0;9720;2;0;0;0;0;0;7;0;8592;0;0;0;0;8;0;3958;0;0;0;0;9;0;4025;0;0;0;0
24.10.20;18:40:00;1;1005;10217;0;2;0;7353;0;0;0;0;3;0;4524;0;0;0;0;4;0;5804;0;0;0;0;5;0;0;0;0;0;0;0;0;6;0;9720;2;0;0;0;0;0;7;0;8592;0;0;0;0;8;0;3958;0;0;0;0;9;0;4025;0;0;0;0
24.10.20;18:35:00;1;1250;10137;0;2;0;7353;0;0;0;0;3;0;4524;0;0;0;0;4;0;5804;0;0;0;0;5;0;0;0;0;0;0;0;0;6;0;9720;2;0;0;0;0;0;7;0;8592;0;0;0;0;8;0;3958;0;0;0;0;9;0;4025;0;0;0;0
24.10.20;18:30:00;1;1202;10034;0;2;0;7353;0;0;0;0;3;0;4524;0;0;0;0;4;0;5804;0;0;0;0;5;0;0;0;0;0;0;0;0;6;0;9720;2;0;0;0;0;0;7;0;8592;0;0;0;0;8;0;3958;0;0;0;0;9;0;4025;0;0;0;0
24.10.20;18:25:00;1;980;9926;0;2;0;7353;0;0;0;0;3;0;4524;0;0;35;3;4;0;5804;0;0;0;0;5;0;0;0;0;0;0;0;0;6;0;9720;2;0;0;0;0;0;7;0;8592;0;0;0;0;8;0;3958;0;0;0;0;9;0;4025;0;0;0;0
24.10.20;18:20:00;1;1170;9844;0;2;0;7353;0;0;234;17;3;0;4524;6;0;303;22;4;0;5804;0;0;46;16;5;0;0;0;0;0;0;0;0;6;0;9720;2;0;0;0;0;0;7;0;8592;0;0;0;0;8;0;3958;0;0;0;0;9;0;4025;0;0;0;0
24.10.20;18:15:00;1;659;9743;0;2;0;7353;6;0;312;21;3;0;4524;6;0;373;22;4;0;5804;1;0;99;23;5;0;0;0;0;0;0;0;0;6;0;9720;2;0;0;0;0;1;7;0;8592;0;0;68;4;8;0;3958;0;0;40;3;9;0;4025;0;0;42;3
24.10.20;18:10:00;1;1977;9690;0;2;0;7353;6;0;351;21;3;0;4524;3;4;411;23;4;0;5804;1;0;152;23;5;0;0;0;0;0;0;0;0;6;0;9720;23;6;3;291;346;31;7;0;8592;6;0;308;25;8;0;3958;6;0;307;23;9;0;4025;6;0;318;20
24.10.20;18:05:00;1;2012;9553;0;2;0;7353;6;0;372;22;3;1;4524;6;3;451;23;4;0;5804;1;0;190;24;5;0;0;0;0;0;0;0;0;6;0;9720;23;2;8;482;239;31;7;0;8592;6;0;376;25;8;0;3958;6;0;376;23;9;0;4025;6;1;380;20
24.10.20;18:00:00;1;388;9419;0;2;0;7353;6;0;392;22;3;2;4524;6;4;480;24;4;0;5804;1;0;218;24;5;0;0;0;0;0;0;0;0;6;0;9720;23;10;1;314;557;32;7;0;8592;6;3;410;26;8;0;3958;6;0;420;23;9;0;4025;6;1;450;20
24.10.20;17:55:00;1;652;9384;0;2;8;7353;6;14;393;23;3;0;4524;6;7;493;24;4;1;5804;3;1;199;25;5;0;0;0;0;0;0;0;0;6;37;9720;1;19;15;453;334;33;7;2;8592;6;4;445;26;8;0;3958;6;2;439;24;9;2;4025;6;3;488;21
24.10.20;17:50:00;1;659;9332;0;2;122;7352;4;156;361;24;3;60;4524;6;86;434;24;4;74;5804;3;77;204;25;5;0;0;0;0;0;0;0;0;6;76;9717;4;57;37;422;276;33;7;31;8592;6;59;394;27;8;0;3958;6;4;474;24;9;0;4025;6;0;543;21
24.10.20;17:45:00;1;472;9276;0;2;198;7343;4;237;363;24;3;115;4519;4;151;418;25;4;164;5798;5;171;207;25;5;0;0;0;0;0;0;0;0;6;102;9711;4;73;51;422;276;33;7;74;8590;4;107;409;27;8;2;3958;6;6;482;24;9;8;4025;3;15;502;21
24.10.20;17:40:00;1;540;9236;0;2;278;7326;4;321;386;25;3;168;4510;4;205;418;25;4;240;5784;5;250;204;25;5;0;0;0;0;0;0;0;0;6;138;9702;4;87;62;422;276;33;7;95;8583;4;115;237;18;8;0;3958;6;0;516;24;9;6;4024;6;11;538;21
24.10.20;17:35:00;1;541;9190;0;2;407;7303;4;454;390;26;3;270;4496;4;314;419;26;4;333;5765;5;347;211;25;5;0;0;0;0;0;0;0;0;6;187;9690;4;126;86;422;276;33;7;264;8571;4;297;358;27;8;49;3958;4;77;409;25;9;18;4023;6;27;484;22
24.10.20;17:30:00;1;999;9141;0;2;483;7269;4;536;389;26;3;327;4474;4;370;415;26;4;385;5737;5;401;211;26;5;0;0;0;0;0;0;0;0;6;273;9675;4;167;164;442;407;33;7;460;8550;4;497;370;27;8;53;3954;4;94;448;25;9;49;4022;4;74;359;22
24.10.20;17:25:00;1;354;9090;0;2;615;7229;4;667;359;27;3;409;4447;4;455;424;26;4;450;5705;5;469;204;26;5;0;0;0;0;0;0;0;0;6;421;9652;4;186;205;563;543;33;7;704;8512;4;751;439;28;8;95;3950;4;125;379;25;9;67;4017;4;95;468;23
24.10.20;17:20:00;1;329;9055;0;2;661;7178;4;715;357;27;3;424;4412;4;475;426;27;4;467;5667;5;486;215;26;5;0;0;0;0;0;0;0;0;6;508;9615;4;242;257;575;544;33;7;154;8452;4;162;75;4;8;140;3942;4;170;390;25;9;94;4012;4;126;489;23
24.10.20;17:15:00;1;1960;9027;0;2;1012;7123;4;1077;353;28;3;607;4377;4;661;427;27;4;633;5628;5;658;220;26;5;0;0;0;0;0;0;0;0;6;744;9572;4;358;364;584;554;33;7;597;8329;0;634;190;11;8;266;3930;4;299;378;25;9;137;4004;4;171;520;23
24.10.20;17:10:00;1;419;8875;0;2;1172;7039;4;1243;361;28;3;700;4326;4;754;419;27;4;695;5576;5;723;232;26;5;0;0;0;0;0;0;0;0;6;879;9509;4;460;459;584;556;33;7;1349;8280;4;1432;396;23;8;440;3909;4;476;315;20;9;131;3993;4;160;437;19
24.10.20;17:05:00;1;395;8845;0;2;1305;6942;4;1381;378;28;3;730;4268;4;785;418;27;4;744;5518;5;775;220;26;5;0;0;0;0;0;0;0;0;6;954;9435;4;502;504;582;554;33;7;1681;8146;4;1767;475;28;8;620;3856;0;663;387;20;9;168;3980;4;205;547;24
24.10.20;17:00:00;1;555;8812;0;2;1205;6832;4;1279;375;28;3;674;4207;4;728;422;27;4;683;5456;5;712;208;26;5;0;0;0;0;0;0;0;0;6;944;9354;4;451;453;578;559;33;7;1743;8004;4;1823;476;28;8;832;3804;4;884;459;25;9;180;3966;4;218;546;24
24.10.20;16:55:00;1;375;8777;0;2;1683;6728;4;1774;382;28;3;931;4150;4;992;419;27;4;891;5397;5;928;199;26;5;0;0;0;0;0;0;0;0;6;1316;9273;4;680;682;585;556;33;7;2133;7859;4;2242;477;28;8;1026;3734;4;1085;464;25;9;151;3951;4;182;462;20
24.10.20;16:50:00;1;259;8747;0;2;1313;6588;4;1393;391;28;3;748;4072;4;804;424;27;4;716;5323;5;746;217;26;5;0;0;0;0;0;0;0;0;6;1159;9162;4;576;583;579;549;33;7;1713;7679;4;1801;482;28;8;823;3648;4;878;464;25;9;211;3935;4;249;519;25
24.10.20;16:45:00;1;269;8725;0;2;1190;6479;4;1265;383;27;3;703;4009;4;762;452;27;4;702;5263;5;731;216;26;5;0;0;0;0;0;0;0;0;6;1222;9065;4;617;617;586;551;33;7;1677;7537;4;1767;461;28;8;801;3579;4;853;451;25;9;262;3918;4;301;529;25
24.10.20;16:40:00;1;328;8702;0;2;1401;6367;4;1487;397;28;3;743;3945;4;799;435;27;4;796;5199;5;829;229;26;5;0;0;0;0;0;0;0;0;6;1301;8972;4;642;637;565;570;33;7;1388;7381;4;1471;469;27;8;651;3506;4;704;475;25;9;432;3895;4;475;473;25
24.10.20;16:35:00;1;258;8673;0;2;1466;6246;4;1553;392;28;3;825;3882;4;887;447;27;4;811;5132;5;845;232;26;5;0;0;0;0;0;0;0;0;6;1481;8858;4;774;744;589;569;33;7;1760;7273;4;1858;482;27;8;884;3455;4;948;479;25;9;838;3861;4;896;432;26
24.10.20;16:30:00;1;1281;8652;0;2;1254;6122;4;1331;382;27;3;704;3811;4;763;475;27;4;700;5063;5;730;232;26;5;0;0;0;0;0;0;0;0;6;1316;8736;4;684;673;561;540;33;7;1766;7119;4;1859;465;27;8;846;3376;4;904;466;25;9;757;3786;4;819;500;26
24.10.20;16:25:00;1;2828;8574;0;2;663;6006;4;721;387;27;3;408;3746;4;457;467;27;4;519;5001;5;540;232;26;5;0;0;0;0;0;0;0;0;6;888;8623;4;436;438;568;540;33;7;898;6963;4;956;454;27;8;419;3302;4;461;452;25;9;395;3720;4;442;505;26
24.10.20;16:20:00;1;2163;8337;0;2;2518;5951;4;2648;394;27;3;1438;3712;4;1519;434;26;4;1123;4958;5;1170;213;26;5;0;0;0;0;0;0;0;0;6;2591;8526;4;1352;1311;596;569;33;7;3465;6891;4;3633;486;27;8;1648;3268;4;1732;470;25;9;1684;3688;4;1783;524;26
24.10.20;16:15:00;1;2174;8157;0;2;1836;5742;4;1932;384;26;3;1079;3593;4;1151;451;26;4;931;4864;5;970;229;26;5;0;0;0;0;0;0;0;0;6;2011;8311;4;1045;994;596;566;33;7;2754;6603;4;2884;474;27;8;1298;3131;4;1366;496;25;9;1413;3549;4;1500;493;25
24.10.20;16:10:00;1;888;7975;0;2;474;5585;4;524;386;25;3;298;3500;4;345;474;26;4;352;4785;5;366;228;26;5;0;0;0;0;0;0;0;0;6;574;8168;4;270;279;557;539;33;7;560;6364;4;607;449;27;8;255;3017;4;296;454;25;9;272;3425;4;315;499;25
24.10.20;16:05:00;1;385;7911;0;2;426;5545;4;475;378;26;3;260;3476;4;308;489;26;4;318;4756;5;332;227;26;5;0;0;0;0;0;0;0;0;6;539;8122;4;275;275;558;537;33;7;462;6317;4;510;454;27;8;200;2996;4;239;450;25;9;216;3402;4;254;480;25
24.10.20;16:00:00;1;2152;7878;0;2;1758;5509;4;1858;395;26;3;821;3453;4;889;506;26;4;1064;4729;5;1108;237;26;5;0;0;0;0;0;0;0;0;6;1999;8072;4;1044;1002;582;551;33;7;2004;6278;4;2105;457;27;8;1100;2978;4;1164;454;25;9;1071;3384;4;1147;495;25
24.10.20;15:55:00;1;2302;7742;0;2;901;5373;4;968;396;26;3;568;3389;4;626;509;26;4;741;4645;5;772;236;26;5;0;0;0;0;0;0;0;0;6;1125;7910;4;566;566;570;548;33;7;996;6126;4;1066;459;27;8;469;2895;4;521;447;25;9;523;3302;4;578;508;25
24.10.20;15:50:00;1;2327;7550;0;2;1106;5297;4;1181;398;26;3;698;3341;4;763;508;27;4;922;4583;5;961;237;27;5;0;0;0;0;0;0;0;0;6;1402;7814;4;714;694;578;556;33;7;1257;6042;4;1332;466;27;8;598;2856;4;649;456;25;9;661;3259;4;721;514;26
24.10.20;15:45:00;1;2314;7355;0;2;1353;5205;4;1436;402;26;3;812;3283;4;879;513;27;4;1103;4507;5;1149;241;26;5;0;0;0;0;0;0;0;0;6;1811;7695;4;946;926;590;559;33;7;2335;5938;4;2446;470;26;8;1151;2806;4;1224;465;24;9;1256;3204;4;1339;513;25
24.10.20;15:40:00;1;3666;7162;0;2;1102;5094;4;1176;403;26;3;705;3216;4;767;504;26;4;940;4416;5;979;234;26;5;0;0;0;0;0;0;0;0;6;1495;7545;4;756;757;577;556;33;7;1364;5755;4;1442;475;26;8;659;2716;4;708;463;24;9;727;3105;4;787;522;25
24.10.20;15:35:00;1;4615;6887;0;2;1039;5002;4;1109;392;25;3;662;3157;4;726;510;26;4;897;4338;5;935;237;26;5;0;0;0;0;0;0;0;0;6;1449;7421;4;753;732;575;558;33;7;1267;5641;4;1333;476;26;8;612;2661;4;657;468;24;9;680;3045;4;738;514;25
24.10.20;15:30:00;1;5000;6500;0;2;968;4915;4;1037;397;25;3;612;3102;4;674;506;26;4;829;4263;5;864;238;26;5;0;0;0;0;0;0;0;0;6;1361;7301;4;690;688;580;557;33;7;1125;5536;4;1194;467;26;8;542;2610;4;588;471;24;9;605;2988;4;662;516;25
24.10.20;15:25:00;1;4427;6066;0;2;900;4834;4;966;400;25;3;571;3051;4;630;509;26;4;773;4194;5;805;237;26;5;0;0;0;0;0;0;0;0;6;1267;7188;4;653;653;575;552;33;7;986;5442;4;1053;463;26;8;475;2565;4;519;463;24;9;531;2938;4;584;509;25
24.10.20;15:20:00;1;338;5720;0;2;902;4759;4;969;397;25;3;573;3003;4;633;505;26;4;773;4130;5;806;236;26;5;0;0;0;0;0;0;0;0;6;1274;7082;4;643;644;574;553;33;7;978;5360;4;1034;454;26;8;465;2526;4;510;460;24;9;526;2893;4;579;514;25
24.10.20;15:15:00;1;373;5692;0;2;832;4684;4;899;399;26;3;531;2956;4;588;505;26;4;718;4065;5;748;235;26;5;0;0;0;0;0;0;0;0;6;1215;6976;4;624;609;570;551;33;7;912;5278;4;976;460;26;8;431;2487;4;476;440;24;9;487;2849;4;539;505;25
24.10.20;15:10:00;1;328;5660;0;2;831;4615;4;896;397;26;3;528;2911;4;585;503;26;4;716;4005;5;746;232;26;5;0;0;0;0;0;0;0;0;6;1235;6875;4;645;630;577;548;33;7;912;5202;4;970;461;27;8;427;2451;4;469;435;25;9;487;2809;4;538;504;25
24.10.20;15:05:00;1;275;5636;0;2;865;4545;4;931;395;26;3;548;2867;4;607;509;27;4;749;3946;5;780;234;27;5;0;0;0;0;0;0;0;0;6;1288;6772;4;674;663;573;551;33;7;942;5126;4;1001;462;27;8;448;2415;4;491;455;25;9;503;2768;4;554;505;25
24.10.20;15:00:00;1;560;5605;0;2;953;4473;4;1022;397;26;3;604;2821;4;666;499;27;4;832;3883;5;866;234;27;5;0;0;0;0;0;0;0;0;6;1401;6663;4;716;702;574;555;33;7;1060;5047;4;1123;454;27;8;515;2378;4;556;460;25;9;572;2726;4;631;514;25
24.10.20;14:55:00;1;305;5577;0;2;950;4394;4;1022;398;26;3;609;2771;4;671;506;27;4;832;3814;5;866;234;27;5;0;0;0;0;0;0;0;0;6;1410;6546;4;739;713;581;553;33;7;1069;4959;4;1138;459;27;8;516;2335;4;562;462;25;9;580;2679;4;639;521;25
24.10.20;14:50:00;1;287;5550;0;2;900;4315;4;969;396;27;3;575;2721;4;633;502;27;4;781;3744;5;814;233;27;5;0;0;0;0;0;0;0;0;6;1345;6430;4;697;674;575;547;33;7;978;4871;4;1041;459;27;8;396;2285;0;434;406;21;9;530;2631;4;583;510;25
24.10.20;14:45:00;1;239;5526;0;2;977;4240;4;1046;397;27;3;621;2673;4;682;502;27;4;845;3679;5;880;232;27;5;0;0;0;0;0;0;0;0;6;1459;6317;4;736;732;571;553;33;7;1079;4789;4;1144;461;27;8;515;2253;4;564;459;25;9;578;2587;4;634;513;26
24.10.20;14:40:00;1;275;5507;0;2;1266;4158;4;1348;400;27;3;812;2620;4;880;508;27;4;1102;3608;5;1147;235;27;5;0;0;0;0;0;0;0;0;6;1868;6193;4;956;931;577;558;33;7;1532;4699;4;1615;466;27;8;745;2210;4;793;465;25;9;825;2538;4;891;517;26
24.10.20;14:35:00;1;249;5484;0;2;1355;4052;4;1438;401;27;3;870;2553;4;940;504;27;4;1185;3517;5;1234;237;27;5;0;0;0;0;0;0;0;0;6;2004;6036;4;1026;1011;580;561;33;7;1564;4571;4;1663;469;27;8;764;2148;4;819;462;24;9;859;2469;4;926;518;26
24.10.20;14:30:00;1;265;5463;0;2;1372;3939;4;1454;394;27;3;881;2480;4;951;508;27;4;1210;3418;5;1260;237;27;5;0;0;0;0;0;0;0;0;6;2048;5869;4;1045;1023;581;557;33;7;1599;4441;4;1680;470;27;8;774;2084;4;828;455;24;9;868;2397;4;935;517;26
24.10.20;14:25:00;1;281;5441;0;2;1263;3825;4;1344;405;27;3;814;2407;4;881;504;27;4;1130;3318;5;1177;236;27;5;0;0;0;0;0;0;0;0;6;1927;5698;4;989;959;585;554;33;7;1491;4308;4;1563;470;27;8;722;2020;4;771;455;24;9;811;2325;4;879;515;26
24.10.20;14:20:00;1;293;5418;0;2;1134;3718;4;1206;397;27;3;723;2338;4;789;505;27;4;1010;3222;5;1052;236;27;5;0;0;0;0;0;0;0;0;6;1780;5540;4;919;900;580;557;33;7;1370;4182;4;1436;467;27;8;655;1960;4;709;459;24;9;734;2257;4;798;511;26
24.10.20;14:15:00;1;524;5393;0;2;1332;3624;4;1414;398;28;3;853;2278;4;920;502;27;4;1182;3137;5;1231;238;27;5;0;0;0;0;0;0;0;0;6;2031;5390;4;1059;1043;583;561;33;7;1618;4068;4;1707;469;27;8;788;1905;4;838;463;24;9;879;2196;4;942;512;26
24.10.20;14:10:00;1;1491;5334;0;2;1539;3513;4;1630;401;27;3;988;2206;4;1062;506;27;4;1360;3038;5;1417;240;27;5;0;0;0;0;0;0;0;0;6;2276;5219;4;1170;1146;590;564;33;7;1968;3933;4;2066;473;27;8;964;1839;4;1020;463;24;9;888;2124;4;952;430;21
24.10.20;14:05:00;1;1214;5225;0;2;1190;3385;4;1267;392;27;3;768;2124;4;835;506;27;4;1053;2926;5;1097;236;27;5;0;0;0;0;0;0;0;0;6;1780;5029;4;914;898;578;564;33;7;1482;3769;4;1565;462;26;8;728;1759;4;780;460;24;9;654;2034;4;702;411;20
24.10.20;14:00:00;1;409;5138;0;2;1112;3283;4;1187;393;27;3;708;2059;4;773;500;27;4;976;2836;5;1017;235;27;5;0;0;0;0;0;0;0;0;6;1694;4883;4;873;847;574;555;33;7;1200;3643;4;1271;459;26;8;577;1697;4;627;452;24;9;645;1961;4;707;514;25